User: anonymous   Login
Location: Unspecified
(0.0000°N, 0.0000°E)
Time: 15:44:36
(UTC+01:00)
Language:

Iridium 15 - Orbit

View from above orbital plane
View from above orbital plane
View from above satellite
View from above satellite

Ground track
Ground track

The orbit data is extracted from the following two-line orbital elements,

1 24869U 97034A   17022.25601565  .00000144  00000-0  44434-4 0  9996
2 24869  86.3949  83.1292 0002445  96.3445 263.8030 14.34225399 22997
Epoch (UTC): 22 January 2017 06:08:39
Eccentricity: 0.0002445
inclination: 86.3949°
perigee height: 776 km
apogee height: 779 km
right ascension of ascending node: 83.1292°
argument of perigee: 96.3445°
revolutions per day: 14.34225399
mean anomaly at epoch: 263.8030°
orbit number at epoch: 2299

The dashed part of the orbit path shows where the satellite is in the earth's shadow,  

DLR